Flag for Spain Weather past 2 weeks in Huelva, Spain

Now
45 °F

Clear.


Feels Like: 39 °F
Forecast: 39 / 57 °F
Wind: 10 mph from Northwest

Location: Rota Airport

Current Time: Feb 1, 2015 at 7:22:13 AM

Latest Report: Feb 1, 2015 at 7:00 AM


Visibility: 10 mi

Pressure: 30.09 "Hg

Humidity: 76%

Dew point: 37 °F

Location of HuelvaLocation

Historic Weather in Huelva — Graph

°F

Huelva temperature yesterday

Maximum temperature yesterday: 61 °F (at 11:00 AM)
Minimum temperature yesterday: 52 °F (at 11:00 PM)
Average temperature yesterday: 58 °F

Past Weeks' High & Low Weather Summary

 TemperatureHumidityPressure
High63 °F (Jan 26, 5:00 PM)100% (Jan 17, 7:00 AM)30.39 "Hg (Jan 17, 7:00 AM)
Low37 °F (Jan 17, 7:00 AM)42% (Jan 26, 5:00 PM)29.68 "Hg (Jan 19, 5:00 AM)
Average51 °F79%30.12 "Hg
* Reported Jan 17 6:00 AM — Feb 1 6:00 AM, Huelva, Weather by CustomWeather, © 2014

Note: Actual official high and low records may vary slightly from our data, if they occured in-between our weather recording intervals... More about our weather records

Advertising

Huelva weather history for previous 24 hours

 ConditionsComfort  
Time TempWeatherWind HumidityBarometerVisibility
6:00 AM
Feb 1
46 °FPassing clouds.13 mph71%30.09 "HgN/A
5:00 AM46 °FPassing clouds.13 mph71%30.07 "HgN/A
4:00 AM48 °FPassing clouds.15 mph66%30.07 "HgN/A
3:00 AM48 °FClear.17 mph66%30.07 "Hg10 mi
2:00 AM50 °FClear.15 mph67%30.07 "Hg10 mi
1:00 AM50 °FPassing clouds.17 mph67%30.04 "HgN/A
12:00 AM52 °FPassing clouds.18 mph58%30.04 "HgN/A
11:00 PM
Jan 31
52 °FPassing clouds.16 mph62%30.01 "HgN/A
10:00 PM54 °FPassing clouds.17 mph63%29.98 "HgN/A
9:00 PM54 °FPassing clouds.18 mph63%29.98 "HgN/A
8:00 PM55 °FPassing clouds.20 mph63%29.95 "HgN/A
7:00 PM57 °FPassing clouds.17 mph59%29.92 "HgN/A
6:00 PM59 °FPassing clouds.16 mph55%29.86 "HgN/A
5:00 PM59 °FPassing clouds.15 mph68%29.86 "HgN/A
4:00 PM59 °FPassing clouds.17 mph63%29.83 "HgN/A
3:00 PM59 °FPassing clouds.16 mph68%29.83 "HgN/A
2:00 PM61 °FPassing clouds.20 mph63%29.86 "HgN/A
1:00 PM61 °FPassing clouds.24 mph63%29.86 "HgN/A
12:00 PM61 °FPartly sunny.21 mph72%29.86 "HgN/A
11:00 AM61 °FPartly sunny.28 mph83%29.83 "Hg5 mi
10:00 AM59 °FBroken clouds.30 mph88%29.80 "Hg5 mi
9:00 AM59 °FPartly sunny.30 mph82%29.77 "HgN/A
8:00 AM59 °FPassing clouds.31 mph82%29.77 "HgN/A
7:00 AM59 °FPassing clouds.25 mph88%29.77 "HgN/A
Weather by CustomWeather, © 2014

See weather overviewHow to use our weather pages